[[{"header":{"parameterUnit":"m.s-1","parameterCategory":2,"la1":30.2991,"la2":30.254,"lo1":-89.0895,"lo2":-89.0444,"dy":0.0017,"dx":0.0017,"nx":28,"ny":28,"refTime":"2024-05-04T21:00:00:Z","depth":"0","parameterNumber":2,"parameterNumberName":"U-component_of_CURRENTS"},"data":[0,0,0,0,0,0,0,0,0,0,0,0,0,0,0,0,0,0,0,0,0,0,0,0,0,0,0,0,0,0,0,0,0,0,0,0,0,0,0,0,0,0,0,0,0,0,0,0,0,0,0,0,0,0,0,0,0,0,-0.2206,-0.2206,0,-0.2177,-0.2176,-0.2176,-0.2138,-0.2137,-0.2137,-0.2136,-0.211,-0.211,-0.2109,0,0,0,0,0,0,0,0,0,0,0,0,0,-0.2225,-0.2224,-0.2206,-0.2206,-0.2205,-0.2177,-0.2176,-0.2176,-0.2138,-0.2137,-0.2137,-0.2136,-0.211,-0.211,-0.2109,0,0,0,0,0,0,0,0,0,0,0,0,0,-0.2207,-0.2224,-0.2206,-0.2184,-0.2182,-0.2177,-0.2176,-0.2175,-0.2138,-0.2137,-0.2137,-0.2136,-0.211,-0.211,-0.2109,-0.2121,0,0,-0.2108,-0.2108,0,0,0,0,0,0,0,0,-0.2208,-0.2206,-0.2188,-0.2186,-0.2183,-0.2161,-0.2173,-0.2158,-0.2138,-0.2153,-0.2136,-0.2136,-0.2129,-0.2127,-0.2121,-0.212,-0.2119,-0.2108,-0.2108,-0.2108,-0.2108,0,0,0,0,0,0,0,-0.2209,-0.2207,-0.2193,-0.2188,-0.2185,-0.2175,-0.2171,-0.217,-0.2144,-0.2152,-0.2149,-0.2149,-0.2127,-0.2121,-0.212,-0.2118,-0.2108,-0.2108,-0.2107,-0.2107,-0.2112,-0.2113,0,0,0,0,0,0,-0.2217,-0.2208,-0.2194,-0.2192,-0.2196,-0.2175,-0.2171,-0.2168,-0.2144,-0.214,-0.2149,-0.2147,-0.2122,-0.212,-0.2119,-0.2116,-0.2108,-0.2107,-0.2107,-0.2112,-0.2112,-0.2113,0,0,0,0,0,0,-0.2217,-0.2216,-0.2195,-0.2201,-0.2197,-0.2176,-0.2172,-0.2168,-0.2158,-0.2143,-0.2138,-0.2144,-0.2122,-0.2119,-0.2114,-0.2115,-0.2107,-0.2107,-0.2112,-0.2112,-0.2113,-0.212,0,0,0,0,0,0,-0.2218,-0.2216,-0.2213,-0.2201,-0.2197,-0.2194,-0.2173,-0.2168,-0.216,-0.2157,-0.2137,-0.2134,-0.2121,-0.2115,-0.2114,-0.2114,-0.2106,-0.2111,-0.2112,-0.2112,-0.2119,-0.2121,-0.2122,0,0,0,0,0,-0.2218,-0.222,-0.2213,-0.2212,-0.2196,-0.2194,-0.2192,-0.2172,-0.2161,-0.216,-0.2144,-0.2134,-0.2119,-0.2115,-0.2114,-0.2114,-0.2111,-0.2112,-0.2112,-0.2119,-0.212,-0.2122,0,0,0,0,0,0,-0.2233,-0.2216,-0.2209,-0.2206,-0.2202,-0.2189,-0.2184,-0.2176,-0.2163,-0.2157,-0.2139,-0.2135,-0.2131,-0.2126,-0.2122,-0.2119,-0.2114,-0.2114,-0.2119,-0.212,-0.2122,-0.2124,-0.2106,0,0,0,0,0,-0.2235,-0.2224,-0.2218,-0.2215,-0.2214,-0.22,-0.2196,-0.2187,-0.2176,-0.2169,-0.2156,-0.2144,-0.2135,-0.213,-0.2124,-0.2124,-0.212,-0.2124,-0.2125,-0.2127,-0.2128,-0.213,-0.2131,-0.2116,-0.2116,-0.2116,0,0,-0.2239,-0.2229,-0.2223,-0.2216,-0.2208,-0.2212,-0.2195,-0.2192,-0.2192,-0.217,-0.2163,-0.215,-0.2137,-0.2132,-0.213,-0.2126,-0.2128,-0.2128,-0.2128,-0.213,-0.2131,-0.2132,-0.2133,-0.2116,-0.2116,-0.2116,0,0,-0.2245,-0.2235,-0.223,-0.223,-0.2223,-0.2218,-0.222,-0.2211,-0.2202,-0.2199,-0.218,-0.2165,-0.2159,-0.2142,-0.2135,-0.2143,-0.2136,-0.2146,-0.2151,-0.2152,-0.2154,-0.2155,-0.2146,-0.2146,-0.2145,-0.2145,-0.2145,0,-0.2253,-0.2243,-0.2231,-0.2234,-0.2234,-0.2224,-0.223,-0.2225,-0.2215,-0.2211,-0.2199,-0.2179,-0.2161,-0.2152,-0.2147,-0.2144,-0.2145,-0.2144,-0.2154,-0.2155,-0.2156,-0.2146,-0.2146,-0.2145,-0.2145,-0.2145,-0.2145,0,-0.2256,-0.2253,-0.2253,-0.2248,-0.2252,-0.2254,-0.2253,-0.2251,-0.2239,-0.2235,-0.2225,-0.2198,-0.2183,-0.2176,-0.2159,-0.2157,-0.2155,-0.2156,-0.2148,-0.2157,-0.2147,-0.2147,-0.2146,-0.2146,-0.2145,-0.2145,0,0,-0.2253,-0.2254,-0.2251,-0.2254,-0.2258,-0.2262,-0.2267,-0.2268,-0.2277,-0.2257,-0.2264,-0.2225,-0.2209,-0.2199,-0.2177,-0.2172,-0.2165,-0.2166,-0.2166,-0.2154,-0.2166,-0.206,-0.205,-0.2173,-0.2173,-0.2173,-0.2154,0,-0.2255,-0.2263,-0.2262,-0.2272,-0.2279,-0.2278,-0.2288,-0.2291,-0.2292,-0.2301,-0.2269,-0.2267,-0.222,-0.2212,-0.2196,-0.2191,-0.2167,-0.217,-0.2161,-0.2161,-0.2063,-0.2046,-0.1942,-0.1907,-0.2153,-0.2153,-0.2153,0,-0.2253,-0.2256,-0.2268,-0.2284,-0.2288,-0.2297,-0.2313,-0.2319,-0.2331,-0.2333,-0.2319,-0.231,-0.2287,-0.2253,-0.222,-0.2229,-0.2186,-0.2172,-0.2171,-0.2069,-0.2054,-0.1939,-0.1897,-0.1866,-0.2153,-0.2153,-0.2153,0,-0.2248,-0.226,-0.2267,-0.2272,-0.2292,-0.2296,-0.2304,-0.2325,-0.2333,-0.2352,-0.2365,-0.2349,-0.2331,-0.2303,-0.2231,-0.2242,-0.2199,-0.2214,-0.207,-0.2062,-0.1968,-0.1951,-0.189,-0.2169,-0.2169,-0.2169,-0.2169,0,-0.2243,-0.2248,-0.2265,-0.2268,-0.2276,-0.2298,-0.2315,-0.2323,-0.2355,-0.236,-0.2369,-0.2358,-0.2343,-0.2307,-0.2258,-0.2147,-0.2207,-0.206,-0.2045,-0.1965,-0.1949,-0.1913,-0.1937,-0.2169,-0.2169,-0.2169,-0.2169,0,-0.2229,-0.2241,-0.2247,-0.2267,-0.227,-0.2273,-0.2302,-0.2322,-0.2353,-0.2363,-0.2366,-0.2371,-0.2311,-0.2271,-0.222,-0.2152,-0.2032,-0.2016,-0.1911,-0.1882,-0.1726,-0.1754,-0.1692,-0.1651,-0.1887,-0.1884,-0.1882,0,-0.2221,-0.2221,-0.2232,-0.2227,-0.2229,-0.2243,-0.2255,-0.2299,-0.2318,-0.2343,-0.234,-0.2305,-0.221,-0.2102,-0.201,-0.1901,-0.1894,-0.1744,-0.1728,-0.1684,-0.1708,-0.174,-0.1715,-0.1616,-0.1612,-0.1608,-0.1605,0,-0.2189,-0.2191,-0.2189,-0.2173,-0.2179,-0.2187,-0.2205,-0.2212,-0.2252,-0.2243,-0.2187,-0.2118,-0.202,-0.1842,-0.1717,-0.1652,-0.1698,-0.1664,-0.1656,-0.1508,-0.1505,-0.1469,-0.1669,-0.1573,-0.1577,-0.1579,-0.1581,-0.1582,-0.2148,-0.2134,-0.2116,-0.2092,-0.2101,-0.2079,-0.2033,-0.2053,-0.2011,-0.1927,-0.197,-0.1812,-0.1721,-0.1517,-0.1457,-0.1337,-0.1432,-0.129,-0.1335,-0.1378,-0.1307,-0.1416,-0.1277,-0.1279,-0.128,-0.1281,-0.1282,0,-0.2077,-0.2054,-0.2032,-0.1992,-0.1958,-0.1986,-0.1956,-0.1873,-0.1748,-0.1701,-0.1588,-0.1434,-0.1259,-0.1215,-0.1099,-0.1031,-0.1047,-0.1021,-0.1066,-0.1062,-0.1176,-0.1128,-0.0903,-0.0903,-0.0903,-0.0903,-0.0903,-0.0904,-0.2031,-0.1975,-0.1952,-0.1838,-0.181,-0.1698,-0.1635,-0.1514,-0.1432,-0.1201,-0.11,-0.1068,-0.1021,-0.1031,-0.0925,-0.0884,-0.09,-0.0856,-0.0917,-0.1018,-0.1048,-0.1077,-0.1035,-0.0795,-0.0795,-0.0752,-0.0751,-0.0751]},{"header":{"parameterUnit":"m.s-1","parameterCategory":2,"la1":30.2991,"la2":30.254,"lo1":-89.0895,"lo2":-89.0444,"dy":0.0017,"dx":0.0017,"nx":28,"ny":28,"refTime":"2024-05-04T21:00:00:Z","depth":"0","parameterNumber":3,"parameterNumberName":"V-component_of_CURRENTS"},"data":[0,0,0,0,0,0,0,0,0,0,0,0,0,0,0,0,0,0,0,0,0,0,0,0,0,0,0,0,0,0,0,0,0,0,0,0,0,0,0,0,0,0,0,0,0,0,0,0,0,0,0,0,0,0,0,0,0,0,-0.0191,-0.019,0,-0.0105,-0.0104,-0.0103,-0.0047,-0.0047,-0.0047,-0.0047,0.0094,0.0097,0.0101,0,0,0,0,0,0,0,0,0,0,0,0,0,-0.0213,-0.0213,-0.0191,-0.019,-0.0189,-0.0105,-0.0104,-0.0102,-0.0047,-0.0047,-0.0047,-0.0047,0.0093,0.0097,0.0101,0,0,0,0,0,0,0,0,0,0,0,0,0,-0.0171,-0.0213,-0.0191,-0.0153,-0.0149,-0.0105,-0.0104,-0.0102,-0.0047,-0.0047,-0.0047,-0.0047,0.0091,0.0097,0.0102,0.0132,0,0,0.0119,0.0121,0,0,0,0,0,0,0,0,-0.0173,-0.017,-0.016,-0.0156,-0.0151,-0.0089,-0.006,-0.0022,-0.0047,-0.0084,-0.0047,-0.0047,0.0036,0.0046,0.0065,0.0139,0.0145,0.0119,0.0122,0.0125,0.0126,0,0,0,0,0,0,0,-0.0176,-0.0172,-0.0154,-0.0159,-0.0154,-0.0108,-0.0103,-0.0052,-0.0023,-0.008,-0.0077,-0.0071,0.0039,0.0059,0.0068,0.0147,0.0119,0.0124,0.0127,0.0129,0.0261,0.0261,0,0,0,0,0,0,-0.0197,-0.0176,-0.0157,-0.0152,-0.0165,-0.0109,-0.0102,-0.0107,-0.0024,-0.0013,-0.0071,-0.0069,0.005,0.0062,0.0074,0.0111,0.0125,0.013,0.0133,0.0261,0.0261,0.0262,0,0,0,0,0,0,-0.0198,-0.0197,-0.0161,-0.0163,-0.0156,-0.011,-0.0114,-0.0105,-0.0087,-0.0019,-0.0005,-0.0063,0.005,0.0066,0.0119,0.0117,0.0132,0.0137,0.0261,0.0261,0.0261,0.0187,0,0,0,0,0,0,-0.0199,-0.0198,-0.0208,-0.0165,-0.0156,-0.0141,-0.0115,-0.0104,-0.0085,-0.0081,-0.0007,0.0006,0.0052,0.011,0.0124,0.0125,0.0142,0.026,0.0261,0.0261,0.0189,0.0185,0.0181,0,0,0,0,0,-0.02,-0.0217,-0.0209,-0.0207,-0.0173,-0.0141,-0.0132,-0.0096,-0.0085,-0.0079,-0.0028,0.0004,0.0123,0.0115,0.0131,0.0133,0.026,0.0261,0.0261,0.0191,0.0186,0.0181,0,0,0,0,0,0,-0.0227,-0.0212,-0.0202,-0.0213,-0.0183,-0.0133,-0.0125,-0.0102,-0.0057,-0.0052,0.0011,0.0028,0.0073,0.0115,0.0105,0.0173,0.0195,0.0199,0.0137,0.0132,0.0128,0.0113,0.0146,0,0,0,0,0,-0.0241,-0.0252,-0.022,-0.0227,-0.0216,-0.0172,-0.0156,-0.0132,-0.0088,-0.0068,-0.0018,0.0038,0.0088,0.0118,0.0169,0.0209,0.0243,0.0221,0.0216,0.0213,0.0212,0.0247,0.0246,0.0263,0.0263,0.0263,0,0,-0.0251,-0.0245,-0.025,-0.0233,-0.0206,-0.0192,-0.0161,-0.014,-0.0124,-0.0059,-0.0022,0.0026,0.0096,0.0138,0.0162,0.0173,0.0228,0.0213,0.0209,0.0211,0.0248,0.0246,0.0244,0.0264,0.0264,0.0263,0,0,-0.0273,-0.0273,-0.0286,-0.0266,-0.0238,-0.0211,-0.021,-0.0164,-0.0141,-0.01,-0.0051,-0.0007,0.0072,0.0117,0.0151,0.0157,0.0204,0.0173,0.0144,0.0177,0.0175,0.0174,0.022,0.0224,0.0172,0.0172,0.0172,0,-0.0283,-0.03,-0.028,-0.028,-0.0268,-0.0224,-0.0222,-0.019,-0.0133,-0.0115,-0.0097,0.0008,0.0062,0.0115,0.0117,0.0147,0.0177,0.0152,0.0169,0.0169,0.0169,0.0217,0.0221,0.0168,0.0169,0.0169,0.017,0,-0.0309,-0.0318,-0.0321,-0.0312,-0.0293,-0.0286,-0.0243,-0.0222,-0.0192,-0.0158,-0.0106,-0.0035,0.0026,0.0048,0.0088,0.0118,0.0143,0.0155,0.0175,0.0163,0.0214,0.022,0.0163,0.0165,0.0166,0.0167,0,0,-0.0341,-0.0342,-0.0344,-0.035,-0.0313,-0.0305,-0.0277,-0.0244,-0.0241,-0.0177,-0.0157,-0.0072,-0.0041,-0.0,0.0051,0.0083,0.0113,0.0115,0.0118,0.0148,0.0194,0.0229,0.024,0.0122,0.0122,0.0123,0.023,0,-0.0365,-0.0391,-0.0374,-0.0384,-0.0391,-0.0346,-0.0329,-0.0291,-0.0258,-0.0228,-0.0149,-0.0107,-0.0057,-0.0034,0.0007,0.009,0.0126,0.0083,0.0213,0.0217,0.0239,0.0247,0.0262,0.036,0.0236,0.0238,0.0238,0,-0.0393,-0.0411,-0.0434,-0.0436,-0.0434,-0.0427,-0.0408,-0.0388,-0.0329,-0.0298,-0.0242,-0.0182,-0.0101,-0.0071,0.0062,0.0031,0.0105,0.0165,0.0171,0.0233,0.0264,0.0354,0.0377,0.047,0.0249,0.0248,0.0247,0,-0.0438,-0.0452,-0.048,-0.0478,-0.0467,-0.0465,-0.0454,-0.0412,-0.0407,-0.0344,-0.0327,-0.0228,-0.0174,-0.0071,0.0073,0.0063,0.0215,0.0217,0.0321,0.0325,0.038,0.0388,0.0499,0.0296,0.0296,0.0295,0.0295,0,-0.0475,-0.0496,-0.0509,-0.0523,-0.0558,-0.0521,-0.0545,-0.0517,-0.0479,-0.0472,-0.0372,-0.033,-0.0176,-0.0063,0.0059,0.0224,0.0211,0.0323,0.0354,0.0357,0.0361,0.0479,0.0511,0.03,0.0299,0.0298,0.0297,0,-0.0514,-0.0522,-0.0561,-0.0572,-0.0582,-0.0606,-0.0613,-0.0636,-0.0576,-0.0561,-0.0536,-0.0403,-0.0241,-0.0076,0.0105,0.0206,0.0421,0.0415,0.0417,0.0446,0.0612,0.0639,0.0775,0.0838,0.0539,0.054,0.0541,0,-0.054,-0.0564,-0.0613,-0.0658,-0.0668,-0.0701,-0.0732,-0.0691,-0.0707,-0.0596,-0.0592,-0.0427,-0.0288,0.0008,0.021,0.0438,0.0501,0.0562,0.0542,0.0632,0.0685,0.0688,0.0731,0.0595,0.0596,0.0598,0.0599,0,-0.0587,-0.0604,-0.0643,-0.0743,-0.0796,-0.085,-0.0878,-0.0889,-0.0825,-0.076,-0.063,-0.0494,-0.0198,0.0084,0.0363,0.0487,0.0624,0.0595,0.0689,0.0741,0.0752,0.0823,0.0521,0.061,0.0609,0.0608,0.0608,0.0607,-0.0625,-0.0673,-0.0742,-0.0838,-0.0912,-0.0982,-0.1004,-0.0985,-0.0947,-0.0799,-0.0664,-0.0393,-0.0024,0.039,0.0525,0.0779,0.0741,0.0842,0.0871,0.0868,0.0917,0.0644,0.0762,0.0761,0.0761,0.0761,0.0761,0,-0.068,-0.0746,-0.0843,-0.0956,-0.1062,-0.1067,-0.1099,-0.1072,-0.0988,-0.0776,-0.0583,-0.0091,0.026,0.058,0.0937,0.1055,0.1067,0.1102,0.1111,0.1145,0.0913,0.0904,0.1057,0.1057,0.1057,0.1057,0.1056,0.1056,-0.0713,-0.082,-0.0881,-0.1072,-0.115,-0.123,-0.1231,-0.1124,-0.0962,-0.0584,-0.0244,0.0038,0.0496,0.0989,0.1283,0.1297,0.1397,0.1365,0.1435,0.1271,0.1248,0.1226,0.1226,0.1444,0.1445,0.1651,0.1653,0.1654]}],[{"header":{"parameterUnit":"m.s-1","parameterCategory":2,"la1":30.2991,"la2":30.254,"lo1":-89.0895,"lo2":-89.0444,"dy":0.0017,"dx":0.0017,"nx":28,"ny":28,"refTime":"2024-05-04T21:00:00:Z","depth":"2","parameterNumber":2,"parameterNumberName":"U-component_of_CURRENTS"},"data":[0,0,0,0,0,0,0,0,0,0,0,0,0,0,0,0,0,0,0,0,0,0,0,0,0,0,0,0,0,0,0,0,0,0,0,0,0,0,0,0,0,0,0,0,0,0,0,0,0,0,0,0,0,0,0,0,0,0,-0.1387,-0.1388,0,-0.1438,-0.1438,-0.1439,-0.1488,-0.1489,-0.149,-0.1491,-0.1619,-0.1622,-0.1624,0,0,0,0,0,0,0,0,0,0,0,0,0,-0.1277,-0.1279,-0.1387,-0.1388,-0.1388,-0.1438,-0.1438,-0.1439,-0.1488,-0.1489,-0.149,-0.1491,-0.1618,-0.1621,-0.1624,0,0,0,0,0,0,0,0,0,0,0,0,0,-0.1324,-0.128,-0.1387,-0.142,-0.1424,-0.1438,-0.1438,-0.1439,-0.1488,-0.1489,-0.1491,-0.1492,-0.1617,-0.1621,-0.1625,-0.1625,0,0,-0.1637,-0.1639,0,0,0,0,0,0,0,0,-0.1322,-0.1328,-0.1415,-0.1418,-0.1422,-0.146,-0.1447,-0.1506,-0.1488,-0.1462,-0.1491,-0.1492,-0.1573,-0.1581,-0.1584,-0.1631,-0.1636,-0.1637,-0.164,-0.1641,-0.1643,0,0,0,0,0,0,0,-0.1318,-0.1326,-0.1405,-0.1415,-0.142,-0.1414,-0.1423,-0.1457,-0.151,-0.1464,-0.1468,-0.1477,-0.1576,-0.158,-0.1588,-0.1638,-0.1637,-0.1641,-0.1643,-0.1645,-0.1751,-0.1751,0,0,0,0,0,0,-0.1318,-0.1323,-0.1404,-0.1407,-0.1376,-0.1416,-0.1425,-0.1445,-0.1508,-0.1519,-0.1476,-0.1479,-0.1572,-0.1583,-0.1592,-0.167,-0.1641,-0.1645,-0.1647,-0.175,-0.1751,-0.1751,0,0,0,0,0,0,-0.1315,-0.1325,-0.1401,-0.1367,-0.1376,-0.1417,-0.1439,-0.1445,-0.1481,-0.1516,-0.1528,-0.1508,-0.1574,-0.1587,-0.1647,-0.1673,-0.1647,-0.1651,-0.175,-0.175,-0.1751,-0.1779,0,0,0,0,0,0,-0.1312,-0.1324,-0.134,-0.1367,-0.1379,-0.1429,-0.1438,-0.1446,-0.1483,-0.1489,-0.1548,-0.1559,-0.1576,-0.1641,-0.1651,-0.1678,-0.1654,-0.1749,-0.175,-0.1751,-0.1777,-0.178,-0.1783,0,0,0,0,0,-0.1308,-0.1334,-0.134,-0.135,-0.1399,-0.1429,-0.1435,-0.1465,-0.1484,-0.1502,-0.1543,-0.1559,-0.1653,-0.1645,-0.1657,-0.1685,-0.1749,-0.175,-0.1751,-0.1776,-0.178,-0.1783,0,0,0,0,0,0,-0.1297,-0.1342,-0.135,-0.1388,-0.1412,-0.1439,-0.1461,-0.148,-0.1524,-0.1541,-0.1573,-0.1587,-0.1646,-0.1658,-0.1649,-0.1714,-0.17,-0.1704,-0.1716,-0.1719,-0.1722,-0.1731,-0.1657,0,0,0,0,0,-0.1298,-0.1329,-0.1362,-0.1391,-0.1408,-0.1437,-0.1455,-0.1479,-0.1518,-0.1539,-0.1579,-0.1618,-0.1651,-0.1682,-0.171,-0.1755,-0.1759,-0.1776,-0.1779,-0.1781,-0.1794,-0.1819,-0.1826,-0.1754,-0.1754,-0.1754,0,0,-0.1297,-0.1328,-0.1343,-0.1389,-0.1412,-0.1441,-0.1453,-0.1494,-0.1521,-0.1547,-0.1606,-0.1635,-0.1664,-0.171,-0.1737,-0.1731,-0.1799,-0.1782,-0.1785,-0.1797,-0.1821,-0.1828,-0.1835,-0.1755,-0.1755,-0.1755,0,0,-0.1308,-0.1343,-0.1369,-0.1396,-0.1441,-0.146,-0.1479,-0.1524,-0.1551,-0.1601,-0.1624,-0.1669,-0.1725,-0.1747,-0.1763,-0.1799,-0.1811,-0.1811,-0.1842,-0.1866,-0.1872,-0.1878,-0.1874,-0.1879,-0.1815,-0.1815,-0.1815,0,-0.13,-0.1345,-0.1379,-0.1413,-0.1442,-0.1473,-0.1508,-0.1531,-0.159,-0.1628,-0.1627,-0.1724,-0.1737,-0.1802,-0.1803,-0.1807,-0.1819,-0.1829,-0.187,-0.1876,-0.1882,-0.1876,-0.1882,-0.1816,-0.1816,-0.1816,-0.1816,0,-0.1325,-0.1367,-0.1389,-0.1441,-0.1475,-0.1512,-0.1552,-0.1594,-0.163,-0.1665,-0.1746,-0.1766,-0.1828,-0.1829,-0.1825,-0.1879,-0.1872,-0.1869,-0.1864,-0.1891,-0.1883,-0.1888,-0.1818,-0.1818,-0.1817,-0.1817,0,0,-0.1286,-0.1386,-0.1392,-0.1438,-0.1499,-0.1538,-0.1584,-0.1648,-0.1721,-0.1752,-0.184,-0.186,-0.1892,-0.1911,-0.1921,-0.1934,-0.1954,-0.1921,-0.1921,-0.192,-0.2,-0.1851,-0.1842,-0.197,-0.1972,-0.1973,-0.1972,0,-0.129,-0.1362,-0.1412,-0.1486,-0.153,-0.1588,-0.1646,-0.1713,-0.1774,-0.1865,-0.1888,-0.1966,-0.1917,-0.1964,-0.1967,-0.1972,-0.1973,-0.1954,-0.1972,-0.1972,-0.1839,-0.1845,-0.1712,-0.1689,-0.1977,-0.1978,-0.1979,0,-0.1286,-0.1344,-0.141,-0.1547,-0.1576,-0.1625,-0.1753,-0.1813,-0.1926,-0.1982,-0.205,-0.2084,-0.2111,-0.2068,-0.207,-0.2067,-0.2032,-0.2018,-0.2018,-0.1877,-0.1832,-0.1712,-0.1687,-0.1987,-0.1987,-0.1986,-0.1985,0,-0.1238,-0.1351,-0.1408,-0.1443,-0.1583,-0.1641,-0.1723,-0.1848,-0.1937,-0.2057,-0.2127,-0.2184,-0.22,-0.219,-0.2094,-0.2114,-0.2077,-0.2103,-0.1936,-0.1925,-0.1812,-0.1787,-0.2104,-0.2104,-0.2104,-0.2104,-0.2104,0,-0.1218,-0.1276,-0.1398,-0.1431,-0.1552,-0.1646,-0.1796,-0.1883,-0.203,-0.2112,-0.2182,-0.222,-0.223,-0.2194,-0.2138,-0.2012,-0.2097,-0.1939,-0.1917,-0.1812,-0.1788,-0.2053,-0.2047,-0.2104,-0.2104,-0.2104,-0.2104,0,-0.1155,-0.1227,-0.1314,-0.1462,-0.1529,-0.161,-0.1834,-0.1952,-0.2062,-0.2161,-0.219,-0.2255,-0.2182,-0.2145,-0.2101,-0.2029,-0.1955,-0.1883,-0.173,-0.1688,-0.1796,-0.1792,-0.177,-0.1765,-0.176,-0.1757,-0.1753,0,-0.113,-0.1156,-0.1317,-0.14,-0.1474,-0.1631,-0.1766,-0.1943,-0.2052,-0.2132,-0.2166,-0.2139,-0.2049,-0.1934,-0.1832,-0.1718,-0.1791,-0.1542,-0.155,-0.1782,-0.1764,-0.1766,-0.1768,-0.1418,-0.1413,-0.1408,-0.1404,0,-0.107,-0.1116,-0.1186,-0.1353,-0.1493,-0.1663,-0.1838,-0.1905,-0.2047,-0.2059,-0.2,-0.1917,-0.1814,-0.1618,-0.1486,-0.1416,-0.1561,-0.1443,-0.1743,-0.1499,-0.1444,-0.1427,-0.1442,-0.1364,-0.1368,-0.1371,-0.1373,-0.1375,-0.1015,-0.1042,-0.1137,-0.1295,-0.1473,-0.1611,-0.1652,-0.1777,-0.1807,-0.1738,-0.1758,-0.1567,-0.155,-0.1266,-0.1163,-0.1118,-0.1246,-0.1218,-0.1236,-0.1258,-0.1193,-0.113,-0.0979,-0.0981,-0.0983,-0.0984,-0.0985,0,-0.0916,-0.0975,-0.1101,-0.1256,-0.1401,-0.1534,-0.165,-0.1612,-0.1501,-0.1481,-0.135,-0.1129,-0.0981,-0.0975,-0.0833,-0.08,-0.085,-0.0777,-0.0854,-0.0893,-0.0928,-0.0851,-0.0544,-0.0543,-0.0542,-0.0541,0,0,-0.0867,-0.0903,-0.0963,-0.1124,-0.1262,-0.1327,-0.1324,-0.121,-0.1157,-0.0982,-0.0881,-0.0911,-0.0926,-0.0733,-0.0688,-0.0587,-0.0743,-0.0559,-0.091,-0.1038,-0.1072,-0.1172,-0.1094,0,0,0,0,0]},{"header":{"parameterUnit":"m.s-1","parameterCategory":2,"la1":30.2991,"la2":30.254,"lo1":-89.0895,"lo2":-89.0444,"dy":0.0017,"dx":0.0017,"nx":28,"ny":28,"refTime":"2024-05-04T21:00:00:Z","depth":"2","parameterNumber":3,"parameterNumberName":"V-component_of_CURRENTS"},"data":[0,0,0,0,0,0,0,0,0,0,0,0,0,0,0,0,0,0,0,0,0,0,0,0,0,0,0,0,0,0,0,0,0,0,0,0,0,0,0,0,0,0,0,0,0,0,0,0,0,0,0,0,0,0,0,0,0,0,-0.0511,-0.0511,0,-0.0463,-0.0462,-0.0461,-0.0436,-0.0437,-0.0437,-0.0437,-0.0277,-0.0273,-0.0268,0,0,0,0,0,0,0,0,0,0,0,0,0,-0.0451,-0.0453,-0.0511,-0.0511,-0.0511,-0.0463,-0.0462,-0.0461,-0.0436,-0.0437,-0.0437,-0.0437,-0.0278,-0.0273,-0.0268,0,0,0,0,0,0,0,0,0,0,0,0,0,-0.0444,-0.0453,-0.0511,-0.0496,-0.0494,-0.0463,-0.0462,-0.0461,-0.0436,-0.0437,-0.0437,-0.0438,-0.028,-0.0274,-0.0267,-0.0215,0,0,-0.0246,-0.0243,0,0,0,0,0,0,0,0,-0.0445,-0.0446,-0.0498,-0.0497,-0.0495,-0.046,-0.0382,-0.0374,-0.0436,-0.0454,-0.0437,-0.0438,-0.033,-0.0319,-0.0305,-0.0207,-0.02,-0.0245,-0.0241,-0.0238,-0.0236,0,0,0,0,0,0,0,-0.0445,-0.0447,-0.0488,-0.0498,-0.0496,-0.0446,-0.0447,-0.038,-0.0384,-0.0452,-0.0451,-0.0452,-0.0328,-0.0312,-0.0301,-0.0198,-0.0245,-0.0239,-0.0235,-0.0232,-0.0074,-0.0073,0,0,0,0,0,0,-0.0466,-0.0449,-0.049,-0.0487,-0.0475,-0.0448,-0.0448,-0.0467,-0.0388,-0.0378,-0.0452,-0.0451,-0.0323,-0.0309,-0.0295,-0.0244,-0.0238,-0.0232,-0.0228,-0.0074,-0.0074,-0.0073,0,0,0,0,0,0,-0.0465,-0.0471,-0.0492,-0.0468,-0.0468,-0.045,-0.0471,-0.0466,-0.046,-0.0389,-0.0377,-0.0452,-0.0323,-0.0304,-0.0248,-0.0237,-0.0229,-0.0222,-0.0074,-0.0074,-0.0073,-0.0131,0,0,0,0,0,0,-0.0464,-0.0471,-0.0493,-0.0471,-0.0471,-0.0478,-0.047,-0.0465,-0.0461,-0.046,-0.0385,-0.037,-0.0322,-0.0258,-0.0241,-0.0227,-0.0217,-0.0074,-0.0074,-0.0074,-0.0129,-0.0133,-0.0136,0,0,0,0,0,-0.0462,-0.0489,-0.0495,-0.05,-0.0502,-0.0478,-0.0473,-0.0457,-0.0461,-0.0454,-0.0412,-0.0373,-0.0245,-0.0253,-0.0232,-0.0216,-0.0074,-0.0074,-0.0074,-0.0128,-0.0132,-0.0136,0,0,0,0,0,0,-0.0468,-0.0489,-0.0495,-0.0527,-0.0508,-0.0476,-0.0477,-0.0464,-0.0427,-0.043,-0.0365,-0.0346,-0.0295,-0.0248,-0.0259,-0.0172,-0.0155,-0.015,-0.0203,-0.0206,-0.021,-0.0221,-0.0211,0,0,0,0,0,-0.0484,-0.0518,-0.0507,-0.0532,-0.0529,-0.0505,-0.0497,-0.0484,-0.045,-0.0436,-0.0386,-0.0331,-0.0275,-0.0239,-0.0184,-0.0128,-0.0085,-0.0107,-0.011,-0.0113,-0.011,-0.0047,-0.0045,-0.0073,-0.0073,-0.0073,0,0,-0.0494,-0.0511,-0.0529,-0.0537,-0.0526,-0.0513,-0.05,-0.0493,-0.0479,-0.042,-0.0388,-0.034,-0.0265,-0.0212,-0.0183,-0.0171,-0.0084,-0.0113,-0.0116,-0.0111,-0.0047,-0.0044,-0.0041,-0.0073,-0.0073,-0.0073,0,0,-0.0519,-0.0544,-0.0574,-0.056,-0.0553,-0.053,-0.0533,-0.0504,-0.0491,-0.0455,-0.0411,-0.0362,-0.0279,-0.0222,-0.0182,-0.0167,-0.0109,-0.0152,-0.0166,-0.0106,-0.0103,-0.01,-0.005,-0.0042,-0.0147,-0.0148,-0.0148,0,-0.0528,-0.0566,-0.0571,-0.0578,-0.0568,-0.0542,-0.0538,-0.0515,-0.0471,-0.0454,-0.0455,-0.0338,-0.0283,-0.02,-0.0204,-0.0173,-0.0135,-0.0158,-0.0111,-0.0107,-0.0103,-0.0052,-0.0043,-0.015,-0.015,-0.015,-0.0149,0,-0.0561,-0.0584,-0.0593,-0.0602,-0.0585,-0.0578,-0.0546,-0.0529,-0.0516,-0.0488,-0.0428,-0.0357,-0.0284,-0.0262,-0.0228,-0.0163,-0.0146,-0.0129,-0.0104,-0.0103,-0.005,-0.0039,-0.0154,-0.0153,-0.0152,-0.0152,0,0,-0.0593,-0.0616,-0.062,-0.0626,-0.0597,-0.0588,-0.0563,-0.0528,-0.0518,-0.0471,-0.0438,-0.0354,-0.0321,-0.0274,-0.0217,-0.0167,-0.0115,-0.0143,-0.0139,-0.0099,0.0012,0.0009,0.0021,-0.0091,-0.0089,-0.0088,0.0035,0,-0.0612,-0.0646,-0.064,-0.0643,-0.0647,-0.0609,-0.0589,-0.0553,-0.0521,-0.0481,-0.0407,-0.0352,-0.0321,-0.0287,-0.0232,-0.0139,-0.0087,-0.015,0.0012,0.0017,0.0009,0.0033,0.0012,0.0118,0.0046,0.0048,0.0049,0,-0.064,-0.0659,-0.0681,-0.0676,-0.0674,-0.0666,-0.0631,-0.0609,-0.0541,-0.0514,-0.0442,-0.0381,-0.0281,-0.0271,-0.011,-0.0153,-0.0079,-0.0016,-0.0009,0.0018,0.0034,0.0109,0.0141,0.0068,0.0067,0.0065,0.0064,0,-0.0669,-0.0683,-0.0709,-0.0704,-0.069,-0.0692,-0.0678,-0.0626,-0.061,-0.0528,-0.0498,-0.0377,-0.0315,-0.02,-0.0075,-0.0086,0.0087,0.0095,0.0166,0.0167,0.0196,0.0196,0.0201,0.0201,0.0201,0.02,0.02,0,-0.069,-0.0709,-0.0734,-0.0746,-0.0771,-0.0738,-0.0747,-0.0714,-0.0655,-0.0623,-0.052,-0.0455,-0.0299,-0.0181,-0.0069,0.0083,0.01,0.0173,0.0203,0.0174,0.017,0.0165,0.0159,0.0205,0.0204,0.0203,0.0202,0,-0.0719,-0.0737,-0.077,-0.0782,-0.0794,-0.0815,-0.0812,-0.081,-0.074,-0.0689,-0.0658,-0.0508,-0.0345,-0.019,0.0004,0.0086,0.0235,0.0281,0.0227,0.0248,0.0274,0.0264,0.0386,0.0387,0.0388,0.0388,0.0389,0,-0.074,-0.0763,-0.0816,-0.0859,-0.0876,-0.0903,-0.0923,-0.0869,-0.0857,-0.0713,-0.0689,-0.0516,-0.0378,-0.0101,0.0075,0.0281,0.0274,0.0356,0.0331,0.0278,0.0296,0.0284,0.0273,0.0352,0.0352,0.0353,0.0353,0,-0.0765,-0.0795,-0.0825,-0.0931,-0.0979,-0.1011,-0.1029,-0.102,-0.0931,-0.0841,-0.0692,-0.0556,-0.0295,-0.0064,0.017,0.0277,0.0321,0.0365,0.0356,0.0292,0.0252,0.0267,0.0257,0.0355,0.0354,0.0354,0.0354,0.0354,-0.0787,-0.0824,-0.0896,-0.0991,-0.106,-0.1106,-0.1107,-0.1075,-0.1007,-0.0834,-0.071,-0.0462,-0.0268,0.0093,0.0245,0.0371,0.0369,0.0403,0.0401,0.0399,0.0356,0.0318,0.0426,0.0426,0.0426,0.0426,0.0426,0,-0.0789,-0.0858,-0.0956,-0.1063,-0.1158,-0.1176,-0.1168,-0.1118,-0.101,-0.0816,-0.0628,-0.0348,-0.0093,0.0104,0.0315,0.0431,0.0416,0.0435,0.0401,0.0398,0.0396,0.0351,0.0421,0.0421,0.0422,0.0422,0,0,-0.0796,-0.0874,-0.0933,-0.1117,-0.1212,-0.1268,-0.1245,-0.1111,-0.0957,-0.0726,-0.0517,-0.0285,-0.0049,0.0102,0.0239,0.0342,0.0334,0.034,0.0331,0.027,0.0266,0.0363,0.029,0,0,0,0,0]}],[{"header":{"parameterUnit":"m.s-1","parameterCategory":2,"la1":30.2991,"la2":30.254,"lo1":-89.0895,"lo2":-89.0444,"dy":0.0017,"dx":0.0017,"nx":28,"ny":28,"refTime":"2024-05-04T21:00:00:Z","depth":"4","parameterNumber":2,"parameterNumberName":"U-component_of_CURRENTS"},"data":[0,0,0,0,0,0,0,0,0,0,0,0,0,0,0,0,0,0,0,0,0,0,0,0,0,0,0,0,0,0,0,0,0,0,0,0,0,0,0,0,0,0,0,0,0,0,0,0,0,0,0,0,0,0,0,0,0,0,-0.0568,-0.0568,0,-0.0579,-0.0579,-0.0579,-0.059,-0.059,-0.0591,-0.0591,-0.0608,-0.0609,-0.0609,0,0,0,0,0,0,0,0,0,0,0,0,0,-0.0552,-0.0552,-0.0568,-0.0568,-0.0568,-0.0579,-0.0579,-0.0579,-0.059,-0.059,-0.0591,-0.0591,-0.0608,-0.0608,-0.0609,0,0,0,0,0,0,0,0,0,0,0,0,0,-0.056,-0.0553,-0.0568,-0.0576,-0.0576,-0.0579,-0.0579,-0.0579,-0.059,-0.059,-0.0591,-0.0591,-0.0608,-0.0608,-0.0609,-0.0605,0,0,-0.061,-0.061,0,0,0,0,0,0,0,0,-0.056,-0.0561,-0.0574,-0.0575,-0.0576,-0.0584,-0.058,-0.0588,-0.059,-0.0584,-0.0591,-0.0591,-0.0601,-0.0602,-0.0602,-0.0606,-0.0607,-0.061,-0.061,-0.0611,-0.0611,0,0,0,0,0,0,0,-0.0559,-0.056,-0.0572,-0.0574,-0.0575,-0.0577,-0.0578,-0.0581,-0.059,-0.0585,-0.0586,-0.0588,-0.0601,-0.0602,-0.0603,-0.0607,-0.061,-0.061,-0.0611,-0.0611,-0.0655,-0.0656,0,0,0,0,0,0,-0.0559,-0.056,-0.0571,-0.0572,-0.0569,-0.0577,-0.0579,-0.0581,-0.059,-0.0592,-0.0588,-0.0588,-0.0601,-0.0602,-0.0604,-0.065,-0.0611,-0.0611,-0.0611,-0.0655,-0.0656,-0.0657,0,0,0,0,0,0,-0.0559,-0.056,-0.0571,-0.0567,-0.0568,-0.0577,-0.0579,-0.0581,-0.059,-0.0592,-0.0594,-0.0597,-0.0601,-0.0603,-0.0623,-0.0649,-0.0611,-0.0611,-0.0653,-0.0655,-0.0656,-0.0712,0,0,0,0,0,0,-0.0558,-0.056,-0.0562,-0.0567,-0.0568,-0.058,-0.0579,-0.0581,-0.0591,-0.0592,-0.0601,-0.0602,-0.0602,-0.0622,-0.0623,-0.0649,-0.0612,-0.0652,-0.0654,-0.0656,-0.0709,-0.0715,-0.072,0,0,0,0,0,-0.0557,-0.0559,-0.0562,-0.0563,-0.0571,-0.058,-0.0581,-0.0588,-0.0591,-0.0598,-0.061,-0.0603,-0.0634,-0.0623,-0.0624,-0.0651,-0.0651,-0.0654,-0.0656,-0.0706,-0.0714,-0.072,0,0,0,0,0,0,-0.055,-0.0561,-0.0564,-0.0568,-0.0577,-0.0582,-0.0587,-0.0593,-0.0606,-0.0609,-0.0613,-0.0615,-0.0643,-0.0636,-0.0624,-0.0668,-0.0642,-0.0645,-0.068,-0.0687,-0.0693,-0.0681,-0.0612,0,0,0,0,0,-0.055,-0.0556,-0.0566,-0.0569,-0.0574,-0.0582,-0.0587,-0.0593,-0.0604,-0.061,-0.062,-0.0632,-0.065,-0.066,-0.0668,-0.069,-0.0683,-0.0708,-0.0714,-0.0718,-0.0709,-0.0743,-0.0751,-0.0664,-0.0664,-0.0664,0,0,-0.0549,-0.0554,-0.0558,-0.0569,-0.0574,-0.0585,-0.0586,-0.0596,-0.0612,-0.0609,-0.0637,-0.065,-0.0659,-0.0689,-0.0701,-0.0689,-0.0738,-0.0721,-0.0725,-0.0713,-0.0746,-0.0754,-0.0762,-0.0665,-0.0665,-0.0665,0,0,-0.0546,-0.0554,-0.0558,-0.0567,-0.0579,-0.0588,-0.0594,-0.0608,-0.0624,-0.0648,-0.0659,-0.0681,-0.0705,-0.072,-0.073,-0.0767,-0.0766,-0.0783,-0.0806,-0.084,-0.0847,-0.0853,-0.0848,-0.0854,-0.0788,-0.0788,-0.0789,0,-0.0542,-0.0549,-0.056,-0.0567,-0.0578,-0.0592,-0.0603,-0.0621,-0.0643,-0.0663,-0.0662,-0.0714,-0.0715,-0.0763,-0.0778,-0.0779,-0.0794,-0.0782,-0.0848,-0.0854,-0.0859,-0.0853,-0.0858,-0.0791,-0.0791,-0.0791,-0.079,0,-0.0541,-0.055,-0.0554,-0.057,-0.0586,-0.0596,-0.0624,-0.0649,-0.067,-0.0688,-0.0739,-0.0752,-0.0781,-0.0796,-0.0797,-0.0851,-0.0845,-0.0851,-0.0831,-0.0872,-0.0861,-0.0866,-0.0796,-0.0795,-0.0794,-0.0793,0,0,-0.0518,-0.0547,-0.0548,-0.056,-0.0589,-0.0601,-0.0641,-0.068,-0.0716,-0.0742,-0.0792,-0.0818,-0.0831,-0.0842,-0.086,-0.0889,-0.0932,-0.0894,-0.0894,-0.0889,-0.0996,-0.0955,-0.0955,-0.0971,-0.0973,-0.0974,-0.097,0,-0.0511,-0.0523,-0.0547,-0.057,-0.0579,-0.0619,-0.0663,-0.0704,-0.0741,-0.0794,-0.0823,-0.0867,-0.0851,-0.0881,-0.0907,-0.0928,-0.0949,-0.093,-0.0956,-0.0955,-0.0915,-0.0961,-0.0978,-0.0973,-0.0974,-0.0975,-0.0975,0,-0.0495,-0.0508,-0.0526,-0.0579,-0.0591,-0.0615,-0.0687,-0.0729,-0.0806,-0.0843,-0.0888,-0.0914,-0.0952,-0.0944,-0.0979,-0.0979,-0.0986,-0.0996,-0.0997,-0.0939,-0.0923,-0.0925,-0.0983,-0.0983,-0.0982,-0.0982,-0.0981,0,-0.046,-0.0495,-0.051,-0.0522,-0.0585,-0.0616,-0.0662,-0.0738,-0.0794,-0.0874,-0.0921,-0.0964,-0.0996,-0.1018,-0.1033,-0.1015,-0.1086,-0.1054,-0.1017,-0.1013,-0.1024,-0.1017,-0.1086,-0.1086,-0.1086,-0.1086,-0.1086,0,-0.0434,-0.0448,-0.0495,-0.0501,-0.0535,-0.0599,-0.0656,-0.0715,-0.0823,-0.0888,-0.0941,-0.0994,-0.1024,-0.107,-0.1065,-0.1061,-0.1105,-0.1019,-0.1019,-0.1045,-0.1041,-0.1027,-0.102,-0.1086,-0.1086,-0.1086,-0.1086,0,-0.0387,-0.0416,-0.0434,-0.0495,-0.0512,-0.0539,-0.0642,-0.0694,-0.0805,-0.0897,-0.093,-0.1025,-0.1063,-0.1102,-0.1136,-0.109,-0.11,-0.1097,-0.1121,-0.1122,-0.0979,-0.0976,-0.1,-0.0999,-0.0998,-0.0997,-0.0997,0,-0.0362,-0.0365,-0.0407,-0.0409,-0.0432,-0.0483,-0.0526,-0.0657,-0.0721,-0.0903,-0.0942,-0.1036,-0.1079,-0.1097,-0.1122,-0.1117,-0.1112,-0.1089,-0.1017,-0.0979,-0.0976,-0.0973,-0.0971,-0.0995,-0.0995,-0.0994,-0.0994,0,-0.0316,-0.0332,-0.0346,-0.0338,-0.0364,-0.0414,-0.049,-0.0548,-0.0716,-0.0816,-0.0942,-0.0993,-0.1046,-0.1055,-0.1093,-0.1083,-0.1081,-0.1076,-0.1076,-0.1008,-0.0972,-0.097,-0.0969,-0.099,-0.0991,-0.0991,-0.0991,0,-0.028,-0.0274,-0.028,-0.0271,-0.0292,-0.0344,-0.0403,-0.0505,-0.0606,-0.0828,-0.0852,-0.097,-0.1046,-0.104,-0.107,-0.1069,-0.101,-0.0946,-0.0951,-0.0956,-0.0944,-0.0892,-0.0889,0,0,0,0,0,-0.0245,-0.0231,-0.0213,-0.0209,-0.0224,-0.0245,-0.0376,-0.0458,-0.0618,-0.0689,-0.0792,-0.0852,-0.0915,-0.0956,-0.0936,-0.0992,-0.0986,-0.096,-0.0907,-0.097,-0.0974,-0.0964,0,0,0,0,0,0,-0.0222,-0.0208,-0.0194,-0.0149,-0.0131,-0.017,-0.0259,-0.0381,-0.0443,-0.0604,-0.0645,-0.0751,-0.0814,-0.0897,-0.0895,-0.0906,-0.0848,-0.1024,-0.1021,-0.0967,-0.0971,-0.0975,-0.0966,0,0,0,0,0]},{"header":{"parameterUnit":"m.s-1","parameterCategory":2,"la1":30.2991,"la2":30.254,"lo1":-89.0895,"lo2":-89.0444,"dy":0.0017,"dx":0.0017,"nx":28,"ny":28,"refTime":"2024-05-04T21:00:00:Z","depth":"4","parameterNumber":3,"parameterNumberName":"V-component_of_CURRENTS"},"data":[0,0,0,0,0,0,0,0,0,0,0,0,0,0,0,0,0,0,0,0,0,0,0,0,0,0,0,0,0,0,0,0,0,0,0,0,0,0,0,0,0,0,0,0,0,0,0,0,0,0,0,0,0,0,0,0,0,0,-0.0128,-0.0128,0,-0.0133,-0.0133,-0.0133,-0.0128,-0.0128,-0.0128,-0.0128,-0.0117,-0.0117,-0.0117,0,0,0,0,0,0,0,0,0,0,0,0,0,-0.0091,-0.0092,-0.0128,-0.0128,-0.0128,-0.0133,-0.0133,-0.0133,-0.0128,-0.0128,-0.0128,-0.0127,-0.0117,-0.0117,-0.0117,0,0,0,0,0,0,0,0,0,0,0,0,0,-0.0103,-0.0092,-0.0128,-0.0126,-0.0126,-0.0133,-0.0133,-0.0133,-0.0128,-0.0128,-0.0128,-0.0127,-0.0117,-0.0117,-0.0117,-0.0122,0,0,-0.0116,-0.0116,0,0,0,0,0,0,0,0,-0.0102,-0.0104,-0.0126,-0.0126,-0.0126,-0.013,-0.0117,-0.0129,-0.0128,-0.0127,-0.0128,-0.0127,-0.012,-0.012,-0.0122,-0.0122,-0.0121,-0.0116,-0.0116,-0.0116,-0.0116,0,0,0,0,0,0,0,-0.0102,-0.0104,-0.013,-0.0126,-0.0126,-0.0118,-0.0119,-0.0119,-0.0125,-0.0127,-0.0127,-0.0128,-0.012,-0.0122,-0.0121,-0.0121,-0.0116,-0.0116,-0.0116,-0.0116,-0.0122,-0.0122,0,0,0,0,0,0,-0.0103,-0.0104,-0.013,-0.013,-0.0113,-0.0119,-0.012,-0.0129,-0.0125,-0.0125,-0.0128,-0.0127,-0.0122,-0.0121,-0.0121,-0.0116,-0.0116,-0.0116,-0.0116,-0.0121,-0.0122,-0.0122,0,0,0,0,0,0,-0.0102,-0.0105,-0.0129,-0.0116,-0.0119,-0.012,-0.0129,-0.0129,-0.0132,-0.0126,-0.0125,-0.0131,-0.0122,-0.0121,-0.0122,-0.0116,-0.0116,-0.0116,-0.0121,-0.0121,-0.0122,-0.0114,0,0,0,0,0,0,-0.0101,-0.0105,-0.0111,-0.0117,-0.012,-0.0137,-0.0129,-0.0129,-0.0132,-0.0132,-0.0128,-0.0127,-0.0122,-0.0123,-0.0122,-0.0116,-0.0116,-0.0121,-0.0121,-0.0122,-0.0114,-0.0114,-0.0114,0,0,0,0,0,-0.01,-0.0108,-0.0112,-0.0115,-0.0128,-0.0137,-0.0138,-0.0137,-0.0133,-0.0137,-0.0133,-0.0127,-0.0125,-0.0123,-0.0122,-0.0116,-0.0121,-0.0121,-0.0122,-0.0114,-0.0114,-0.0114,0,0,0,0,0,0,-0.0093,-0.0109,-0.0112,-0.0125,-0.0132,-0.0136,-0.0139,-0.0139,-0.014,-0.0139,-0.0131,-0.013,-0.013,-0.0127,-0.0125,-0.012,-0.0121,-0.0121,-0.0115,-0.0115,-0.0116,-0.0113,-0.0116,0,0,0,0,0,-0.0096,-0.0108,-0.0119,-0.0129,-0.0133,-0.0137,-0.014,-0.0142,-0.0143,-0.0143,-0.014,-0.0136,-0.0132,-0.0127,-0.0129,-0.0125,-0.0114,-0.0121,-0.0121,-0.0121,-0.0119,-0.0085,-0.0081,-0.0123,-0.0123,-0.0123,0,0,-0.0095,-0.0106,-0.0112,-0.0128,-0.0133,-0.0146,-0.0138,-0.0146,-0.0153,-0.0142,-0.0148,-0.014,-0.0134,-0.013,-0.0129,-0.0125,-0.0108,-0.0122,-0.0122,-0.012,-0.0085,-0.008,-0.0076,-0.0124,-0.0124,-0.0124,0,0,-0.0101,-0.011,-0.0124,-0.0134,-0.0146,-0.0151,-0.0155,-0.0162,-0.016,-0.0167,-0.0157,-0.0145,-0.0147,-0.0132,-0.0126,-0.0129,-0.0113,-0.013,-0.012,-0.0086,-0.0082,-0.0078,-0.0075,-0.0071,-0.0124,-0.0124,-0.0124,0,-0.0098,-0.0124,-0.0127,-0.0145,-0.0156,-0.0155,-0.0174,-0.0172,-0.0178,-0.0175,-0.0171,-0.0156,-0.0147,-0.0129,-0.0124,-0.0127,-0.0114,-0.0118,-0.0085,-0.008,-0.0076,-0.0074,-0.007,-0.0123,-0.0123,-0.0123,-0.0123,0,-0.0119,-0.014,-0.0148,-0.0174,-0.0184,-0.02,-0.0202,-0.0204,-0.0202,-0.0198,-0.0184,-0.0164,-0.0153,-0.0143,-0.0131,-0.0099,-0.0102,-0.0091,-0.008,-0.0071,-0.007,-0.0066,-0.0123,-0.0123,-0.0123,-0.0123,0,0,-0.0116,-0.0157,-0.016,-0.0185,-0.0204,-0.0219,-0.0223,-0.023,-0.0232,-0.0216,-0.0212,-0.018,-0.0161,-0.0152,-0.0128,-0.0088,-0.005,-0.0072,-0.0071,-0.0063,0.0008,0.0027,0.0034,-0.0023,-0.0022,-0.0021,-0.0008,0,-0.0135,-0.0178,-0.0191,-0.0233,-0.0258,-0.026,-0.027,-0.027,-0.0259,-0.0253,-0.0209,-0.0201,-0.0167,-0.0156,-0.0108,-0.0069,-0.0034,-0.0056,-0.0007,-0.0006,0.0016,0.0042,-0.0017,-0.0004,-0.0003,-0.0002,-0.0002,0,-0.0155,-0.0185,-0.0229,-0.0277,-0.0288,-0.0308,-0.0324,-0.0332,-0.0309,-0.0297,-0.026,-0.0233,-0.0179,-0.0151,-0.0064,-0.0077,-0.0034,0.0004,0.0005,0.0026,0.0023,-0.0012,0.0007,0.0006,0.0006,0.0005,0.0005,0,-0.0162,-0.0214,-0.0255,-0.0271,-0.0316,-0.0332,-0.0351,-0.0344,-0.0352,-0.032,-0.0314,-0.0251,-0.0222,-0.0147,-0.0059,-0.0063,0.004,0.0034,0.0088,0.0087,0.0062,0.0058,0.0099,0.0099,0.0099,0.0099,0.0099,0,-0.0184,-0.0218,-0.0265,-0.029,-0.0341,-0.0357,-0.0394,-0.0392,-0.0389,-0.0395,-0.0336,-0.031,-0.0212,-0.0139,-0.0067,0.0033,0.0033,0.0095,0.0104,0.006,0.0056,0.0064,0.006,0.01,0.01,0.01,0.0099,0,-0.019,-0.0221,-0.0274,-0.0327,-0.0349,-0.0383,-0.0437,-0.0457,-0.0441,-0.0442,-0.0433,-0.0355,-0.0259,-0.0158,-0.004,0.0018,0.0108,0.0144,0.0078,0.0082,0.0123,0.0118,0.0177,0.0179,0.0179,0.018,0.0181,0,-0.0199,-0.0226,-0.0299,-0.0338,-0.0369,-0.0423,-0.0464,-0.0481,-0.0491,-0.0461,-0.0454,-0.0368,-0.0303,-0.0124,-0.002,0.0111,0.0139,0.0168,0.016,0.0134,0.0136,0.0131,0.0125,0.0182,0.0182,0.0183,0.0183,0,-0.0214,-0.0237,-0.0278,-0.035,-0.0408,-0.0482,-0.0527,-0.0538,-0.0544,-0.0533,-0.0457,-0.0364,-0.0252,-0.0117,-0.0001,0.0094,0.0139,0.0177,0.0175,0.0168,0.014,0.014,0.0134,0.0186,0.0185,0.0185,0.0185,0,-0.0218,-0.0246,-0.0293,-0.0356,-0.0437,-0.051,-0.0543,-0.0549,-0.0558,-0.0511,-0.0483,-0.036,-0.0287,-0.0125,-0.0018,0.0082,0.0091,0.011,0.0112,0.0109,0.0098,0.0053,0.0088,0,0,0,0,0,-0.0218,-0.0243,-0.03,-0.0374,-0.0454,-0.0499,-0.0571,-0.0591,-0.0588,-0.0536,-0.0508,-0.0398,-0.0229,-0.0147,-0.0045,-0.0022,0.0096,0.0099,0.0114,0.0203,0.0199,0.0201,0,0,0,0,0,0,-0.022,-0.0261,-0.0285,-0.037,-0.042,-0.0511,-0.056,-0.057,-0.0531,-0.0506,-0.0408,-0.0363,-0.0192,-0.027,-0.0031,-0.0003,0.002,0.018,0.0182,0.0205,0.0202,0.0199,0.02,0,0,0,0,0]}]]